TimeMDT,TemperatureF,Dew PointF,Humidity,Sea Level PressureIn,VisibilityMPH,Wind Direction,Wind SpeedMPH,Gust SpeedMPH,PrecipitationIn,Events,Conditions,WindDirDegrees,DateUTC
12:53 AM,48.9,14.0,25,29.64,10.0,West,4.6,-,N/A,,Clear,270,2013-03-23 06:53:00
1:53 AM,51.1,17.1,26,29.63,10.0,WSW,6.9,-,N/A,,Clear,250,2013-03-23 07:53:00
2:53 AM,52.0,18.0,26,29.62,10.0,WSW,5.8,-,N/A,,Clear,250,2013-03-23 08:53:00
3:53 AM,50.0,19.9,31,29.61,10.0,South,5.8,-,N/A,,Clear,190,2013-03-23 09:53:00
4:53 AM,48.9,19.9,32,29.60,10.0,SSW,3.5,-,N/A,,Clear,210,2013-03-23 10:53:00
5:53 AM,48.0,19.0,32,29.62,10.0,West,5.8,-,N/A,,Clear,260,2013-03-23 11:53:00
6:53 AM,48.0,17.1,29,29.65,10.0,West,9.2,-,N/A,,Clear,280,2013-03-23 12:53:00
7:53 AM,50.0,15.1,25,29.66,10.0,West,8.1,-,N/A,,Clear,260,2013-03-23 13:53:00
8:53 AM,57.0,8.1,14,29.67,10.0,West,10.4,-,N/A,,Clear,270,2013-03-23 14:53:00
9:53 AM,61.0,-2.9,8,29.67,10.0,WNW,23.0,27.6,N/A,,Clear,290,2013-03-23 15:53:00
10:53 AM,62.1,-5.1,7,29.68,10.0,West,24.2,34.5,N/A,,Clear,280,2013-03-23 16:53:00
11:53 AM,66.0,-9.9,5,29.64,10.0,West,35.7,43.7,N/A,,Clear,270,2013-03-23 17:53:00
12:53 PM,68.0,-8.0,5,29.63,10.0,West,25.3,38.0,N/A,,Clear,280,2013-03-23 18:53:00
1:38 PM,69.8,-14.8,4,29.78,3.0,WNW,27.6,46.0,N/A,,Haze,290,2013-03-23 19:38:00
1:53 PM,68.0,-15.0,4,29.60,10.0,West,31.1,44.9,N/A,,Clear,280,2013-03-23 19:53:00
2:01 PM,68.0,-16.6,4,29.78,6.0,West,25.3,41.4,N/A,,Haze,280,2013-03-23 20:01:00
2:53 PM,69.1,-25.1,4,29.60,10.0,WNW,28.8,39.1,N/A,,Clear,300,2013-03-23 20:53:00
3:53 PM,68.0,-26.0,4,29.62,10.0,WNW,23.0,36.8,N/A,,Clear,300,2013-03-23 21:53:00
4:53 PM,66.0,-18.9,4,29.64,10.0,NW,18.4,33.4,N/A,,Clear,310,2013-03-23 22:53:00
5:53 PM,61.0,-18.0,4,29.68,10.0,NNW,21.9,32.2,N/A,,Clear,330,2013-03-23 23:53:00
6:53 PM,59.0,-20.9,4,29.72,10.0,NNW,19.6,33.4,N/A,,Clear,330,2013-03-24 00:53:00
7:53 PM,55.0,-18.0,5,29.76,10.0,NW,19.6,26.5,N/A,,Clear,320,2013-03-24 01:53:00
8:53 PM,52.0,-16.1,6,29.79,10.0,NW,16.1,26.5,N/A,,Clear,310,2013-03-24 02:53:00
9:53 PM,48.0,-11.9,8,29.85,10.0,NNE,12.7,-,N/A,,Clear,30,2013-03-24 03:53:00
10:53 PM,39.9,-14.1,10,29.91,10.0,ENE,5.8,-,N/A,,Clear,70,2013-03-24 04:53:00
11:53 PM,37.9,-14.1,10,29.93,10.0,NE,4.6,-,N/A,,Clear,40,2013-03-24 05:53:00